Weather in Lekarstvennoe

Russia / Republic of Crimea     44°56′38″N   33°49′13″E
temp.,
°C
wind,
m/s
gust,
m/s
humid.,
%
clouds,
%
prec.,
mm/h
press.,
hPa
HPBL,
m
28 february, sun
sun2800:00+6n6879100 0.2 1019612
03:00+4n4876100 0.2 1020723
06:00+4nnw4780100 0.1 1020535
09:00+4nnw4687100 0.3 1021519
12:00+4nnw5779100 0.4 1022757
15:00+6nw566394 0.6 10221101
18:00+5nw5669100 0.2 1023930
21:00+3nnw258399 0.3 1024159
1 march, mon
mon100:00+2n128398 0.1 102561
03:00+2s228799 0.1 102571
06:00+2wnw2495100 0.3 1025281
09:00+2ne128499 0.4 1026152
12:00+4n226084 0.0 1027987
15:00+5n335784 0.0 10271077
18:00+5nne345995 0.0 10271176
21:00+3ne357295 0.1 1029239
2 march, tue
tue200:00+1ne238326 0.0 103063
03:000ene228742 0.0 103033
06:000ne118511 0.0 103031
09:00+2n11726 0.0 1031155
12:00+5wnw33570 0.0 1030993
15:00+5w556015 0.0 1029860
18:00+4w566940 0.0 1027833
21:00+3wsw477865 0.0 1027240
3 march, wed
wed300:00+5wsw488064 0.0 1026396
03:00+6w368482 0.0 1025223
06:00+3nnw129354 0.0 102531
09:00+4nw118727 0.0 1026108
12:00+8wnw45670 0.0 1026719
15:00+9w456415 0.0 1026838
18:00+8nw466656 0.0 1026378
21:00+6nnw237350 0.0 102859
4 march, thu
thu400:00+5n127471 0.0 102828
03:00+3ese117742 0.0 102824
06:00+2se22760 0.0 102725
09:00+5sse236718 0.0 102793
12:00+9wsw34520 0.0 1026992
15:00+9wsw45590 0.0 1025758
18:00+7sw46690 0.0 1023513
21:00+5ssw48780 0.0 1022219